www.pogodaiklimat.ru

Погода и климат >> Архив погоды >> Сенегал >> Тамбакунда


ПОГОДА в Тамбакунде

  • Прогноз погоды в Тамбакунде
  • Монитор погоды в Тамбакунде

АРХИВ ПОГОДЫ в Тамбакунде

Время (UTC), дата Ветер
(напр.,м/с)
 
Видим.   Явления Облачность Т
(С)
Тd
(С)
f
(%)
Тe
(С)
Тes
(С)
Комфортность P
(гПа)
Po
(гПа)
Тmin
(С)
Tmax
(С)
R
(мм)
R24
(мм)
S
(см)
00 9.07 Ю 4 10 км 4/0
[Ac trans]
+27.6 +25.3 87 +40 +40 очень
душно
1014.4 1008.7
03 9.07 Ю 3 10 км ясно +27.0 +24.7 87 +38 +38 очень
душно
1013.1 1007.4
06 9.07 ЮЗ 2 10 км 4/1 400 м
[Sc Ac As]
+26.0 +24.0 89 +36 +36 очень
душно
1013.6 1007.9 +25.5 2
09 9.07 ЮЗ 4 10 км 8/8 400 м
[Sc]
+27.5 +24.7 85 +39 +40 очень
душно
1015.0 1009.3
12 9.07 Ю 4 10 км 8/8 400 м
[Sc]
+31.3 +26.3 75 +47 +50 опасность
перегрева
1014.4 1008.8
15 9.07 10 км 6/5 400 м
[Cu med, cong Ci sp]
+33.4 +26.7 68 1011.6 1006.0
18 9.07 Ю 5 10 км 6/3 400 м
[Cu hum Ci sp]
+33.6 +26.8 68 +51 +52 опасность
перегрева
1010.6 1005.0 +34.0
21 9.07 Ю 3 10 км 5/0
[Ci sp]
+30.8 +26.7 79 +48 +48 опасность
перегрева
1011.8 1006.1
00 10.07 Ю 4 10 км 3/0
[Ci sp]
+29.5 +26.0 81 +44 +44 опасность
перегрева
1012.4 1006.7
03 10.07 Ю 5 10 км 9/0
[Ac As]
+28.0 +25.2 85 +41 +41 опасность
перегрева
1011.8 1006.2
06 10.07 Ю 5 10 км 9/0
[Ac As]
+26.8 +24.5 87 +38 +38 очень
душно
1011.9 1006.2 +26.3
09 10.07 ЮЗ 5 10 км 8/5 400 м
[Cu med, cong Ci sp]
+28.0 +24.9 83 +40 +42 очень
душно
1013.0 1007.4
12 10.07 ЮЗ 4 10 км 9/9 400 м
[Cu med, cong]
+30.8 +27.0 80 +48 +50 опасность
перегрева
1013.0 1007.4
15 10.07 ЮЗ 4 10 км 8/8 400 м
[Cu med, cong]
+33.7 +27.3 69 +52 +55 опасность
перегрева
1011.3 1005.7
18 10.07 10 км н/о +34.6 +27.7 67 +54 +55 опасность
перегрева
1009.5 1003.9 +35.0
21 10.07 Ю 3 10 км 5/4 450 м
[Sc diur, vesp Ac As]
+31.5 +26.6 75 +48 +48 опасность
перегрева
1011.1 1005.5
00 11.07 Ю 5 10 км 4/1 450 м
[Sc diur, vesp Ac As]
+30.0 +25.8 78 +45 +45 опасность
перегрева
1012.1 1006.5
03 11.07 Ю 4 10 км 3/0
[Ac As]
+28.5 +25.4 83 +42 +42 опасность
перегрева
1011.1 1005.5
06 11.07 З 3 10 км 4/4 240 м
[St]
+27.5 +25.1 87 +40 +40 очень
душно
1011.5 1005.9 +27.0
09 11.07 З 4 10 км слаб. дождь 9/4 240 м
[St Ac As]
+28.5 +26.0 86 +43 +44 опасность
перегрева
1013.4 1007.8
12 11.07 ЮЗ 2 10 км {дождь} 8/6 450 м
[Cu med, cong Ac trans]
+31.9 +28.0 80 +52 +58 опасность
перегрева
1013.5 1007.9 0.0
15 11.07 ЮЗ 4 10 км 8/4 450 м
[Cu Sc]
+34.2 +27.7 69 +54 +58 опасность
перегрева
1010.9 1005.3
18 11.07 З 2 10 км 8/5 450 м
[Cb calv Ci sp]
+34.5 +26.9 65 +52 +53 опасность
перегрева
1010.2 1004.6 +34.6 0.0
21 11.07 В 1 10 км гроза без осадков 8/3 450 м
[Cb cap Ac trans]
+30.9 +26.2 76 +47 +47 опасность
перегрева
1011.9 1006.3
00 12.07 ЮЗ 2 10 км в посл. час дождь {гроза} 5/1 400 м
[Cb calv Ac trans]
+26.0 +23.7 87 +35 +35 очень
душно
1013.7 1008.0
03 12.07 Ю 4 10 км 5/3 400 м
[Sc Ac As]
+25.5 +24.1 92 +35 +35 очень
душно
1012.6 1006.9
06 12.07 Ю 3 10 км 8/3 400 м
[Sc Ac trans Ci sp]
+25.5 +23.8 90 +35 +35 очень
душно
1012.5 1006.9 +24.9 0.0
09 12.07 Ю 3 10 км 8/6 400 м
[Sc Ci sp]
+27.8 +24.5 82 +39 +41 очень
душно
1013.3 1007.6
12 12.07 Ю 3 10 км 5/3 400 м
[Cu Sc Ci sp]
+31.6 +25.9 72 +47 +58 опасность
перегрева
1013.4 1007.7
15 12.07 ЮЗ 1 10 км 6/6 480 м
[Cu med, cong]
+33.6 +26.6 67 +51 +58 опасность
перегрева
1011.3 1005.6
18 12.07 ЮЗ 2 10 км 5/4 450 м
[Cu Sc]
+35.0 +28.0 67 +56 +57 опасность
перегрева
1009.5 1003.8 +35.4
21 12.07 Ю 2 10 км зарница 9/1 800 м
[Cb calv Cs]
+32.2 +26.4 72 +49 +49 опасность
перегрева
1012.0 1006.3
00 13.07 Ю 3 10 км зарница 9/4 450 м
[Cb cap Cs]
+31.0 +26.2 76 +47 +47 опасность
перегрева
1012.6 1007.0
03 13.07 Ю 5 10 км зарница 10/6 450 м
[Cb cap Ac As]
+26.0 +23.1 84 +35 +35 очень
душно
1012.2 1006.6
06 13.07 З 2 10 км гроза без осадков 10/5 450 м
[Cb cap Ac As]
+25.3 +22.7 86 +33 +33 очень
душно
1012.7 1007.0 +24.7
09 13.07 ЮЗ 3 10 км {гроза} 9/0
[Ci sp]
+27.0 +23.4 81 +37 +41 очень
душно
1013.1 1007.4
12 13.07 З 2 10 км {гроза} 9/1 400 м
[Sc Ac trans Ci sp]
+31.0 +26.3 76 +47 +57 опасность
перегрева
1013.0 1007.4
15 13.07 СЗ 2 10 км ясно +34.5 +27.8 68 +54 +71 опасность
перегрева
1010.1 1004.5
18 13.07 ЮВ 1 10 км 4/1 400 м
[Sc diur, vesp Ac trans Ci sp]
+35.7 +27.8 64 +56 +58 опасность
перегрева
1009.6 1003.9 +36.0
21 13.07 Ю 6 10 км 8/1 400 м
[Sc diur, vesp Ac As Ci sp]
+32.7 +29.1 81 +56 +56 опасность
перегрева
1011.9 1006.3
00 14.07 Ю 4 10 км 9/0
[Ac trans Ci sp]
+30.5 +26.8 81 +48 +48 опасность
перегрева
1012.2 1006.6
03 14.07 ЮЗ 5 10 км 8/0
[Ac trans Ci sp]
+28.4 +25.3 83 +41 +41 опасность
перегрева
1011.7 1006.1
06 14.07 ЮЗ 3 10 км зарница 9/3 400 м
[Cb calv Ac As]
+27.0 +24.4 86 +38 +38 очень
душно
1012.6 1007.0 +26.5
09 14.07 ЮЗ 4 10 км 9/0 400 м
[Ac As]
+28.5 +25.7 85 +42 +45 опасность
перегрева
1013.9 1008.3
12 14.07 ЮЗ 4 10 км 8/6 400 м
[Sc diur, vesp Ci sp]
+31.8 +27.0 76 +50 +55 опасность
перегрева
1013.6 1008.0
15 14.07 Ю 4 10 км 6/0
[Ci sp]
+33.8 +22.7 52 +43 +53 опасность
перегрева
1010.7 1005.1
18 14.07 Ю 5 10 км 6/3 400 м
[Cu hum Ci sp]
+34.2 +27.9 70 +55 +55 опасность
перегрева
1009.8 1004.2 +35.0
21 14.07 Ю 5 10 км 3/0
[Ci sp]
+31.4 +26.4 75 +48 +48 опасность
перегрева
1011.5 1005.8
00 15.07 Ю 3 10 км ясно +29.5 +26.0 81 +44 +44 опасность
перегрева
1012.3 1006.7
06 15.07 ЮЗ 3 10 км 9/9 400 м
[Sc]
+28.3 +25.4 84 +41 +41 опасность
перегрева
1011.3 1005.7 +27.7
09 15.07 ЮЗ 4 10 км 6/3 400 м
[Cu hum Ci sp]
+28.8 +26.0 85 +43 +46 опасность
перегрева
1012.2 1006.5
12 15.07 ЮЗ 4 10 км 6/3 400 м
[Cu hum Ci sp]
+32.4 +26.6 72 +50 +58 опасность
перегрева
1011.6 1006.0
15 15.07 Ю 4 10 км 6/4 400 м
[Cu med, cong Ci sp]
+34.6 +27.7 67 +54 +60 опасность
перегрева
1010.1 1004.5
18 15.07 ЮЗ 3 10 км 8/3 400 м
[Sc Ci sp]
+35.2 +27.5 65 +55 +56 опасность
перегрева
1008.9 1003.3 +35.6
21 15.07 Ю 3 10 км 6/0
[Ci sp]
+32.8 +26.5 70 +50 +50 опасность
перегрева
1009.4 1003.8

 

Местоположение метеостанции Тамбакунда (Сенегал): широта 13.77 долгота -13.68 высота над уровнем моря 50 м.

В архиве по умолчанию представлена погода в Тамбакунде за последнюю неделю. Архивные данные за месяц целиком и за предыдущие месяцы, начиная с января 2011 года, Вы можете получить, выбрав интересующий диапазон дат из раскрывающегося списка и нажав кнопку "Ввод!".


*Определитесь, кто Вы:
робот инопланетянин человек

Внимание! Время в таблицах - всемирное. Для получения местного времени необходимо прибавить поправку, которая равна 0 ч.

Смотрите также архив погоды в соседних городах и на ближайших метеорологических станциях:

Погода в Фатото (Гамбия) (33 км)
Погода в Бассе (Гамбия) (85 км)
Погода в Джорджтауне (Гамбия) (121 км)
Погода в Кундаре (Гвинея) (135 км)
Погода в Колде (Сенегал) (170 км)
Погода в Кауере (Гамбия) (177 км)
Погода в Женое (Гамбия) (207 км)
Погода в Кедугу (Сенегал) (208 км)
Погода в Бафате (Гвинея-Биссау) (208 км)
Погода в Матаме (Сенегал) (214 км)

Пояснения к столбцам:

Ветер - указаны скорость ветра в м/с - средняя за 10 мин, порывы в срок и между сроками (в фигурных скобках) и направление, откуда дует ветер: С - северный, СВ - северо-восточный, В - восточный, ЮВ - юго-восточный, Ю - южный, ЮЗ - юго-западный, З - западный, СЗ - северо-западный.
Видимость - горизонтальная дальность видимости в метрах или километрах. При видимости от 1 до 10 км при отсутствии осадков обычно наблюдается дымка, при ухудшении видимости до 1 км и менее - туман. В сухую погоду видимость может ухудшаться дымом, пылью или мглою.
Явления - указаны атмосферные явления, наблюдавшиеся в срок или в последний час перед сроком; фигурными скобками обозначены явления, наблюдавшиеся между сроками (за 1-3 часа до срока); квадратными скобками обозначены град или гололедные отложения с указанием их диаметра в мм.
Облачность - указаны через наклонную черту общая и нижняя облачность в баллах и высота нижней границы облаков в метрах; квадратными скобками обозначены формы облаков: Ci - перистые, Cs - перисто-слоистые, Cc - перисто-кучевые, Ac - высококучевые, As - высокослоистые, Sc - слоисто-кучевые, Ns - слоисто-дождевые, Cu - кучевые, Cb - кучево-дождевые. Подробнее классификацию облаков см. в Атласе облаков (PDF).
T - Температура воздуха - температура, измеренная на высоте 2 м над землей.
Td - Температура точки росы - температура, при понижении до которой содержащийся в воздухе водяной пар достигнет насыщения.
f - Относительная влажность воздуха - влажноcть воздуха, измеренная на высоте 2 м над землей.
Te - Эффективная температура - температура, которую ощущает одетый по сезону человек в тени. Характеристика душности погоды. При расчете учитывается влияние влажности воздуха и скорости ветра на теплоощущения человека.
Tes - Эффективная температура на солнце - температура, которую ощущает человек, с поправкой на солнечный нагрев. Характеристика знойности погоды. Зависит от высоты солнца над горизонтом, облачности и скорости ветра. Ночью, в пасмурную погоду, а также при ветре 12 м/с и более поправка равна нулю.
P - Атмосферное давление - приведенное к уровню моря атмосферное давление.
Po - Атмосферное давление - измеренное на уровне метеостанции атмосферное давление.
Tmin - Минимальная температура - минимум температуры воздуха на высоте 2 м над землей.
Tmax - Максимальная температура - максимум температуры воздуха на высоте 2 м над землей.
R - Количество осадков - Количество выпавших осадков за период времени, мм. При наведении курсора мыши на число - период времени, за который выпало указанное количество осадков.
R24 - Количество осадков - Количество выпавших осадков за 24 часа, мм.
S - Снежный покров - Высота снежного покрова, см. При наведении курсора мыши на число - состояние снежного покрова и степень покрытия местности в баллах.